Time,TemperatureF,DewpointF,PressureIn,WindDirection,WindDirectionDegrees,WindSpeedMPH,WindSpeedGustMPH,Humidity,HourlyPrecipIn,Conditions,Clouds,dailyrainin,SoftwareType,DateUTC
2013-05-02 00:00:00,40.1,35.4,30.30,West,265,3.0,20.0,83,0.00,,---,0.00,VWS V14.01,2013-05-02 05:00:00,
2013-05-02 00:04:00,40.3,35.6,30.32,WNW,290,3.0,19.0,83,0.00,,---,0.00,VWS V14.01,2013-05-02 05:04:00,
2013-05-02 00:09:00,40.4,35.3,30.33,NW,309,7.0,26.0,82,0.00,,---,0.00,VWS V14.01,2013-05-02 05:09:00,
2013-05-02 00:14:00,40.5,35.5,30.33,NE,50,11.0,26.0,82,0.00,,---,0.00,VWS V14.01,2013-05-02 05:14:00,
2013-05-02 00:19:00,40.5,35.5,30.33,WNW,295,6.0,26.0,82,0.00,,---,0.00,VWS V14.01,2013-05-02 05:19:00,
2013-05-02 00:24:00,40.5,35.5,30.34,WNW,302,2.0,26.0,82,0.00,,---,0.00,VWS V14.01,2013-05-02 05:24:00,
2013-05-02 00:29:00,40.5,35.5,30.33,WNW,294,3.0,6.0,82,0.00,,---,0.00,VWS V14.01,2013-05-02 05:29:00,
2013-05-02 00:30:00,40.5,35.5,30.33,West,261,4.0,26.0,82,0.00,,---,0.00,VWS V14.01,2013-05-02 05:30:00,
2013-05-02 00:34:00,40.5,35.5,30.35,NW,321,14.0,15.0,82,0.00,,---,0.00,VWS V14.01,2013-05-02 05:34:00,
2013-05-02 00:40:00,40.4,35.3,30.35,NW,307,5.0,23.0,82,0.00,,---,0.00,VWS V14.01,2013-05-02 05:40:00,
2013-05-02 00:45:00,40.3,35.2,30.35,NNW,345,7.0,23.0,82,0.00,,---,0.00,VWS V14.01,2013-05-02 05:45:00,
2013-05-02 00:50:00,40.1,35.4,30.35,North,349,8.0,23.0,83,0.00,,---,0.00,VWS V14.01,2013-05-02 05:50:00,
2013-05-02 00:55:00,39.7,35.3,30.35,NE,53,4.0,23.0,84,0.00,,---,0.00,VWS V14.01,2013-05-02 05:55:00,
2013-05-02 01:00:00,39.4,35.3,30.34,NW,318,8.0,19.0,85,0.01,,---,0.01,VWS V14.01,2013-05-02 06:00:00,
2013-05-02 01:05:00,38.9,35.4,30.34,NW,316,6.0,21.0,87,0.02,,---,0.02,VWS V14.01,2013-05-02 06:05:00,
2013-05-02 01:10:00,38.7,35.5,30.34,North,354,6.0,21.0,88,0.03,,---,0.03,VWS V14.01,2013-05-02 06:10:00,
2013-05-02 01:15:00,38.5,35.5,30.35,NNW,335,1.0,21.0,89,0.04,,---,0.04,VWS V14.01,2013-05-02 06:15:00,
2013-05-02 01:20:00,38.2,35.5,30.36,NW,324,7.0,23.0,90,0.05,,---,0.05,VWS V14.01,2013-05-02 06:20:00,
2013-05-02 01:25:00,38.0,35.3,30.36,West,276,12.0,23.0,90,0.05,,---,0.05,VWS V14.01,2013-05-02 06:25:00,
2013-05-02 01:30:00,37.9,35.5,30.36,NNE,22,8.0,9.0,91,0.05,,---,0.05,VWS V14.01,2013-05-02 06:30:00,
2013-05-02 01:36:00,37.8,35.4,30.36,North,8,2.0,12.0,91,0.05,,---,0.05,VWS V14.01,2013-05-02 06:36:00,
2013-05-02 01:41:00,37.6,35.2,30.35,NNW,328,11.0,17.0,91,0.05,,---,0.05,VWS V14.01,2013-05-02 06:41:00,
2013-05-02 01:46:00,37.5,35.1,30.34,West,269,5.0,18.0,91,0.05,,---,0.05,VWS V14.01,2013-05-02 06:46:00,
2013-05-02 01:51:00,37.4,35.0,30.34,North,5,10.0,18.0,91,0.05,,---,0.05,VWS V14.01,2013-05-02 06:51:00,
2013-05-02 01:56:00,37.3,34.9,30.33,NNE,17,21.0,21.0,91,0.05,,---,0.05,VWS V14.01,2013-05-02 06:56:00,
2013-05-02 02:00:00,37.2,34.8,30.33,North,1,10.0,21.0,91,0.05,,---,0.05,VWS V14.01,2013-05-02 07:00:00,
2013-05-02 02:01:00,37.2,34.8,30.34,West,276,3.0,11.0,91,0.05,,---,0.05,VWS V14.01,2013-05-02 07:01:00,
2013-05-02 02:06:00,37.2,34.8,30.34,NNW,342,6.0,15.0,91,0.05,,---,0.05,VWS V14.01,2013-05-02 07:06:00,
2013-05-02 02:11:00,37.2,34.8,30.35,ENE,61,3.0,15.0,91,0.05,,---,0.05,VWS V14.01,2013-05-02 07:11:00,
2013-05-02 02:16:00,37.1,34.7,30.34,ENE,63,2.0,15.0,91,0.05,,---,0.05,VWS V14.01,2013-05-02 07:16:00,
2013-05-02 02:21:00,37.1,34.7,30.34,North,354,16.0,16.0,91,0.05,,---,0.05,VWS V14.01,2013-05-02 07:21:00,
2013-05-02 02:27:00,37.0,34.6,30.34,NNW,340,5.0,18.0,91,0.06,,---,0.06,VWS V14.01,2013-05-02 07:27:00,
2013-05-02 02:30:00,36.9,34.5,30.33,NNW,329,5.0,18.0,91,0.06,,---,0.06,VWS V14.01,2013-05-02 07:30:00,
2013-05-02 02:32:00,36.9,34.8,30.33,North,356,4.0,16.0,92,0.01,,---,0.06,VWS V14.01,2013-05-02 07:32:00,
2013-05-02 02:37:00,36.8,34.7,30.32,North,359,6.0,16.0,92,0.01,,---,0.06,VWS V14.01,2013-05-02 07:37:00,
2013-05-02 02:42:00,36.8,34.7,30.35,WSW,248,10.0,16.0,92,0.01,,---,0.06,VWS V14.01,2013-05-02 07:42:00,
2013-05-02 02:47:00,36.9,34.8,30.37,NNE,20,8.0,17.0,92,0.02,,---,0.07,VWS V14.01,2013-05-02 07:47:00,
2013-05-02 02:52:00,36.9,34.8,30.34,East,97,1.0,17.0,92,0.02,,---,0.07,VWS V14.01,2013-05-02 07:52:00,
2013-05-02 02:57:00,36.9,34.8,30.36,East,94,3.0,17.0,92,0.02,,---,0.07,VWS V14.01,2013-05-02 07:57:00,
2013-05-02 03:00:00,36.9,34.8,30.38,NNW,342,11.0,17.0,92,0.04,,---,0.09,VWS V14.01,2013-05-02 08:00:00,
2013-05-02 03:02:00,36.8,34.7,30.38,NW,319,6.0,16.0,92,0.08,,---,0.13,VWS V14.01,2013-05-02 08:02:00,
2013-05-02 03:07:00,36.6,34.5,30.39,WNW,291,7.0,16.0,92,0.10,,---,0.15,VWS V14.01,2013-05-02 08:07:00,
2013-05-02 03:12:00,36.5,34.7,30.37,WNW,292,1.0,16.0,93,0.13,,---,0.18,VWS V14.01,2013-05-02 08:12:00,
2013-05-02 03:17:00,36.3,34.5,30.35,North,4,6.0,16.0,93,0.15,,---,0.20,VWS V14.01,2013-05-02 08:17:00,
2013-05-02 03:22:00,36.2,34.4,30.40,WNW,297,3.0,16.0,93,0.20,,---,0.25,VWS V14.01,2013-05-02 08:22:00,
2013-05-02 03:28:00,36.1,34.3,30.40,NW,322,3.0,16.0,93,0.23,,---,0.28,VWS V14.01,2013-05-02 08:28:00,
2013-05-02 03:30:00,36.1,34.3,30.38,North,353,11.0,17.0,93,0.24,,---,0.29,VWS V14.01,2013-05-02 08:30:00,
2013-05-02 03:33:00,36.0,34.4,30.36,North,349,10.0,14.0,94,0.25,,---,0.31,VWS V14.01,2013-05-02 08:33:00,
2013-05-02 03:38:00,35.9,34.3,30.36,NNW,347,14.0,14.0,94,0.26,,---,0.32,VWS V14.01,2013-05-02 08:38:00,
2013-05-02 03:43:00,35.8,34.2,30.35,NNE,28,6.0,17.0,94,0.26,,---,0.32,VWS V14.01,2013-05-02 08:43:00,
2013-05-02 03:48:00,35.7,34.2,30.36,ENE,68,3.0,19.0,94,0.27,,---,0.33,VWS V14.01,2013-05-02 08:48:00,
2013-05-02 03:53:00,35.7,34.2,30.34,East,101,4.0,21.0,94,0.28,,---,0.34,VWS V14.01,2013-05-02 08:53:00,
2013-05-02 03:58:00,35.6,34.0,30.34,ENE,71,8.0,21.0,94,0.29,,---,0.35,VWS V14.01,2013-05-02 08:58:00,
2013-05-02 04:00:00,35.6,34.0,30.34,West,276,3.0,21.0,94,0.30,,---,0.36,VWS V14.01,2013-05-02 09:00:00,
2013-05-02 04:03:00,35.5,34.0,30.34,ENE,57,3.0,13.0,94,0.27,,---,0.36,VWS V14.01,2013-05-02 09:03:00,
2013-05-02 04:08:00,35.5,34.0,30.34,ENE,64,4.0,15.0,94,0.28,,---,0.37,VWS V14.01,2013-05-02 09:08:00,
2013-05-02 04:13:00,35.5,34.0,30.34,SSE,152,3.0,15.0,94,0.29,,---,0.38,VWS V14.01,2013-05-02 09:13:00,
2013-05-02 04:19:00,35.5,34.0,30.34,NE,34,9.0,16.0,94,0.30,,---,0.39,VWS V14.01,2013-05-02 09:19:00,
2013-05-02 04:24:00,35.5,34.0,30.34,NW,311,2.0,16.0,94,0.30,,---,0.39,VWS V14.01,2013-05-02 09:24:00,
2013-05-02 04:29:00,35.5,34.0,30.36,WNW,302,2.0,17.0,94,0.30,,---,0.39,VWS V14.01,2013-05-02 09:29:00,
2013-05-02 04:30:00,35.5,34.0,30.36,SW,225,1.0,17.0,94,0.30,,---,0.39,VWS V14.01,2013-05-02 09:30:00,
2013-05-02 04:34:00,35.5,34.0,30.35,NE,49,2.0,17.0,94,0.11,,---,0.40,VWS V14.01,2013-05-02 09:34:00,
2013-05-02 04:39:00,35.7,34.2,30.36,SW,232,1.0,17.0,94,0.12,,---,0.41,VWS V14.01,2013-05-02 09:39:00,
2013-05-02 04:44:00,35.7,34.2,30.38,NE,46,9.0,17.0,94,0.14,,---,0.43,VWS V14.01,2013-05-02 09:44:00,
2013-05-02 04:49:00,35.6,34.0,30.37,NE,38,4.0,18.0,94,0.18,,---,0.47,VWS V14.01,2013-05-02 09:49:00,
2013-05-02 04:54:00,35.6,34.0,30.36,NE,51,2.0,18.0,94,0.22,,---,0.51,VWS V14.01,2013-05-02 09:54:00,
2013-05-02 04:59:00,35.5,34.0,30.36,East,84,5.0,5.0,94,0.16,,---,0.52,VWS V14.01,2013-05-02 09:59:00,
2013-05-02 05:00:00,35.6,34.0,30.36,NNE,22,3.0,18.0,94,0.23,,---,0.52,VWS V14.01,2013-05-02 10:00:00,
2013-05-02 05:04:00,35.5,34.0,30.38,WNW,295,1.0,8.0,94,0.17,,---,0.53,VWS V14.01,2013-05-02 10:04:00,
2013-05-02 05:09:00,35.5,34.0,30.39,NNW,346,6.0,8.0,94,0.17,,---,0.53,VWS V14.01,2013-05-02 10:09:00,
2013-05-02 05:14:00,35.6,34.0,30.38,ENE,75,1.0,12.0,94,0.18,,---,0.54,VWS V14.01,2013-05-02 10:14:00,
2013-05-02 05:20:00,35.6,34.0,30.38,NNE,13,10.0,12.0,94,0.20,,---,0.56,VWS V14.01,2013-05-02 10:20:00,
2013-05-02 05:25:00,35.5,34.0,30.39,NW,319,6.0,16.0,94,0.23,,---,0.59,VWS V14.01,2013-05-02 10:25:00,
2013-05-02 05:30:00,35.5,34.0,30.40,NW,308,4.0,5.0,94,0.21,,---,0.60,VWS V14.01,2013-05-02 10:30:00,
2013-05-02 05:35:00,35.5,34.0,30.40,NNW,339,6.0,17.0,94,0.22,,---,0.61,VWS V14.01,2013-05-02 10:35:00,
2013-05-02 05:40:00,35.4,33.8,30.41,NNE,20,10.0,17.0,94,0.22,,---,0.61,VWS V14.01,2013-05-02 10:40:00,
2013-05-02 05:45:00,35.3,33.8,30.42,East,79,2.0,17.0,94,0.22,,---,0.61,VWS V14.01,2013-05-02 10:45:00,
2013-05-02 05:50:00,35.3,33.8,30.41,NNE,32,3.0,17.0,94,0.23,,---,0.62,VWS V14.01,2013-05-02 10:50:00,
2013-05-02 05:55:00,35.2,33.7,30.41,NNE,26,3.0,17.0,94,0.24,,---,0.63,VWS V14.01,2013-05-02 10:55:00,
2013-05-02 06:00:00,35.1,33.5,30.42,WNW,302,10.0,12.0,94,0.12,,---,0.64,VWS V14.01,2013-05-02 11:00:00,
2013-05-02 06:05:00,35.0,33.5,30.42,NNE,25,2.0,16.0,94,0.13,,---,0.65,VWS V14.01,2013-05-02 11:05:00,
2013-05-02 06:10:00,34.8,33.2,30.42,NE,36,4.0,19.0,94,0.15,,---,0.67,VWS V14.01,2013-05-02 11:10:00,
2013-05-02 06:15:00,34.6,33.0,30.41,WNW,302,4.0,19.0,94,0.18,,---,0.70,VWS V14.01,2013-05-02 11:15:00,
2013-05-02 06:21:00,34.4,32.9,30.41,WSW,248,5.0,19.0,94,0.21,,---,0.73,VWS V14.01,2013-05-02 11:21:00,
2013-05-02 06:26:00,34.3,32.8,30.42,NNE,26,4.0,19.0,94,0.22,,---,0.74,VWS V14.01,2013-05-02 11:26:00,
2013-05-02 06:30:00,34.2,32.7,30.42,NW,320,5.0,19.0,94,0.23,,---,0.75,VWS V14.01,2013-05-02 11:30:00,
2013-05-02 06:31:00,34.2,32.7,30.42,NNW,345,9.0,16.0,94,0.15,,---,0.75,VWS V14.01,2013-05-02 11:31:00,
2013-05-02 06:36:00,34.1,32.6,30.41,West,276,1.0,20.0,94,0.16,,---,0.76,VWS V14.01,2013-05-02 11:36:00,
2013-05-02 06:41:00,34.0,32.5,30.40,NW,317,7.0,20.0,94,0.17,,---,0.77,VWS V14.01,2013-05-02 11:41:00,
2013-05-02 06:46:00,33.9,32.4,30.40,NW,324,3.0,20.0,94,0.19,,---,0.79,VWS V14.01,2013-05-02 11:46:00,
2013-05-02 06:51:00,33.9,32.4,30.37,NNW,328,8.0,20.0,94,0.22,,---,0.82,VWS V14.01,2013-05-02 11:51:00,
2013-05-02 06:56:00,33.7,32.2,30.34,NNW,339,9.0,22.0,94,0.25,,---,0.85,VWS V14.01,2013-05-02 11:56:00,
2013-05-02 07:00:00,33.7,32.2,30.35,East,93,10.0,22.0,94,0.26,,---,0.86,VWS V14.01,2013-05-02 12:00:00,
2013-05-02 07:01:00,33.6,32.1,30.36,WNW,288,14.0,21.0,94,0.23,,---,0.87,VWS V14.01,2013-05-02 12:01:00,
2013-05-02 07:06:00,33.7,32.4,30.40,NE,38,3.0,21.0,95,0.25,,---,0.89,VWS V14.01,2013-05-02 12:06:00,
2013-05-02 07:11:00,33.7,32.4,30.42,NNE,15,5.0,21.0,95,0.25,,---,0.89,VWS V14.01,2013-05-02 12:11:00,
2013-05-02 07:17:00,33.7,32.4,30.43,NW,307,2.0,21.0,95,0.26,,---,0.90,VWS V14.01,2013-05-02 12:17:00,
2013-05-02 07:22:00,33.8,32.5,30.43,SSE,152,6.0,21.0,95,0.27,,---,0.91,VWS V14.01,2013-05-02 12:22:00,
2013-05-02 07:27:00,33.6,32.3,30.43,West,267,11.0,21.0,95,0.28,,---,0.92,VWS V14.01,2013-05-02 12:27:00,
2013-05-02 07:30:00,33.6,32.3,30.43,ENE,77,4.0,21.0,95,0.28,,---,0.92,VWS V14.01,2013-05-02 12:30:00,
2013-05-02 07:32:00,33.5,32.2,30.43,North,358,11.0,17.0,95,0.17,,---,0.92,VWS V14.01,2013-05-02 12:32:00,
2013-05-02 07:37:00,33.5,32.2,30.44,WNW,295,3.0,17.0,95,0.18,,---,0.93,VWS V14.01,2013-05-02 12:37:00,
2013-05-02 07:42:00,33.4,32.1,30.44,West,279,1.0,17.0,95,0.19,,---,0.94,VWS V14.01,2013-05-02 12:42:00,
2013-05-02 07:47:00,33.4,32.1,30.43,NW,323,2.0,18.0,95,0.20,,---,0.95,VWS V14.01,2013-05-02 12:47:00,
2013-05-02 07:52:00,33.3,32.0,30.44,NNW,340,2.0,18.0,95,0.21,,---,0.96,VWS V14.01,2013-05-02 12:52:00,
2013-05-02 07:57:00,33.3,32.0,30.45,NW,315,8.0,18.0,95,0.22,,---,0.97,VWS V14.01,2013-05-02 12:57:00,
2013-05-02 08:00:00,33.3,32.0,30.45,South,172,1.0,18.0,95,0.22,,---,0.97,VWS V14.01,2013-05-02 13:00:00,
2013-05-02 08:02:00,33.3,32.0,30.45,NNW,342,2.0,16.0,95,0.11,,---,0.97,VWS V14.01,2013-05-02 13:02:00,
2013-05-02 08:08:00,33.1,31.8,30.46,NE,38,5.0,16.0,95,0.11,,---,0.97,VWS V14.01,2013-05-02 13:08:00,
2013-05-02 08:13:00,32.9,31.6,30.47,NNE,16,3.0,16.0,95,0.11,,---,0.97,VWS V14.01,2013-05-02 13:13:00,
2013-05-02 08:18:00,32.7,31.4,30.47,NW,312,2.0,16.0,95,0.11,,---,0.97,VWS V14.01,2013-05-02 13:18:00,
2013-05-02 08:23:00,32.5,31.2,30.47,ENE,61,4.0,19.0,95,0.11,,---,0.97,VWS V14.01,2013-05-02 13:23:00,
2013-05-02 08:28:00,32.4,31.1,30.47,NNW,344,2.0,19.0,95,0.11,,---,0.97,VWS V14.01,2013-05-02 13:28:00,
2013-05-02 08:30:00,32.4,31.1,30.47,NNW,336,4.0,19.0,95,0.11,,---,0.97,VWS V14.01,2013-05-02 13:30:00,
2013-05-02 08:33:00,32.3,31.0,30.46,NNE,29,0.0,12.0,95,0.05,,---,0.97,VWS V14.01,2013-05-02 13:33:00,
2013-05-02 08:38:00,32.3,31.3,30.45,North,11,6.0,12.0,96,0.05,,---,0.97,VWS V14.01,2013-05-02 13:38:00,
2013-05-02 08:43:00,32.4,31.4,30.45,WNW,302,3.0,17.0,96,0.05,,---,0.97,VWS V14.01,2013-05-02 13:43:00,
2013-05-02 08:48:00,32.4,31.4,30.45,WNW,283,1.0,17.0,96,0.05,,---,0.97,VWS V14.01,2013-05-02 13:48:00,
2013-05-02 08:53:00,32.4,31.4,30.44,NNW,335,8.0,19.0,96,0.05,,---,0.97,VWS V14.01,2013-05-02 13:53:00,
2013-05-02 08:59:00,32.5,31.5,30.45,WNW,291,5.0,19.0,96,0.05,,---,0.97,VWS V14.01,2013-05-02 13:59:00,
2013-05-02 09:00:00,32.5,31.5,30.45,North,359,0.0,19.0,96,0.05,,---,0.97,VWS V14.01,2013-05-02 14:00:00,
2013-05-02 09:04:00,32.5,31.5,30.46,NNW,331,4.0,9.0,96,0.01,,---,0.98,VWS V14.01,2013-05-02 14:04:00,
2013-05-02 09:09:00,32.5,31.5,30.46,North,1,1.0,14.0,96,0.01,,---,0.98,VWS V14.01,2013-05-02 14:09:00,
2013-05-02 09:14:00,32.6,31.6,30.45,NW,305,4.0,15.0,96,0.01,,---,0.98,VWS V14.01,2013-05-02 14:14:00,
2013-05-02 09:19:00,32.7,31.7,30.45,NE,49,2.0,15.0,96,0.01,,---,0.98,VWS V14.01,2013-05-02 14:19:00,
2013-05-02 09:24:00,32.7,31.7,30.45,NNE,25,1.0,20.0,96,0.02,,---,0.99,VWS V14.01,2013-05-02 14:24:00,
2013-05-02 09:29:00,32.8,31.8,30.46,NNE,19,3.0,20.0,96,0.02,,---,0.99,VWS V14.01,2013-05-02 14:29:00,
2013-05-02 09:30:00,32.8,31.8,30.46,NNE,19,3.0,20.0,96,0.02,,---,0.99,VWS V14.01,2013-05-02 14:30:00,
2013-05-02 09:34:00,32.8,31.8,30.46,NNW,333,2.0,14.0,96,0.02,,---,0.99,VWS V14.01,2013-05-02 14:34:00,
2013-05-02 09:39:00,32.8,31.8,30.45,WNW,302,4.0,14.0,96,0.02,,---,0.99,VWS V14.01,2013-05-02 14:39:00,
2013-05-02 09:44:00,32.7,31.7,30.45,NNE,23,4.0,16.0,96,0.02,,---,0.99,VWS V14.01,2013-05-02 14:44:00,
2013-05-02 09:49:00,32.7,31.7,30.47,North,6,1.0,16.0,96,0.02,,---,0.99,VWS V14.01,2013-05-02 14:49:00,
2013-05-02 09:54:00,32.7,31.7,30.47,NNE,12,4.0,17.0,96,0.03,,---,1.00,VWS V14.01,2013-05-02 14:54:00,
2013-05-02 09:59:00,32.7,31.7,30.47,NNW,328,1.0,5.0,96,0.03,,---,1.00,VWS V14.01,2013-05-02 14:59:00,
2013-05-02 10:00:00,32.7,31.7,30.47,North,5,5.0,17.0,96,0.03,,---,1.00,VWS V14.01,2013-05-02 15:00:00,
2013-05-02 10:04:00,32.7,31.7,30.47,North,349,11.0,18.0,96,0.03,,---,1.00,VWS V14.01,2013-05-02 15:04:00,
2013-05-02 10:10:00,32.8,31.8,30.47,West,261,2.0,18.0,96,0.03,,---,1.00,VWS V14.01,2013-05-02 15:10:00,
2013-05-02 10:15:00,32.7,31.7,30.48,NNE,23,4.0,18.0,96,0.04,,---,1.01,VWS V14.01,2013-05-02 15:15:00,
2013-05-02 10:20:00,32.6,31.6,30.48,NNW,328,11.0,18.0,96,0.04,,---,1.01,VWS V14.01,2013-05-02 15:20:00,
2013-05-02 10:25:00,32.5,31.5,30.47,NNE,18,2.0,18.0,96,0.04,,---,1.01,VWS V14.01,2013-05-02 15:25:00,
2013-05-02 10:30:00,32.4,31.4,30.47,NW,310,5.0,12.0,96,0.02,,---,1.01,VWS V14.01,2013-05-02 15:30:00,
2013-05-02 10:35:00,32.4,31.4,30.48,WNW,288,4.0,12.0,96,0.02,,---,1.01,VWS V14.01,2013-05-02 15:35:00,
2013-05-02 10:40:00,32.4,31.4,30.46,NNW,335,3.0,15.0,96,0.02,,---,1.01,VWS V14.01,2013-05-02 15:40:00,
2013-05-02 10:45:00,32.3,31.3,30.46,North,11,1.0,15.0,96,0.02,,---,1.01,VWS V14.01,2013-05-02 15:45:00,
2013-05-02 10:50:00,32.3,31.3,30.47,NNE,20,8.0,18.0,96,0.02,,---,1.01,VWS V14.01,2013-05-02 15:50:00,
2013-05-02 10:55:00,32.3,31.3,30.47,NW,324,12.0,18.0,96,0.02,,---,1.01,VWS V14.01,2013-05-02 15:55:00,
2013-05-02 11:00:00,32.3,31.3,30.46,NW,310,5.0,18.0,96,0.02,,---,1.01,VWS V14.01,2013-05-02 16:00:00,
2013-05-02 11:01:00,32.3,31.3,30.46,SE,146,1.0,7.0,96,0.01,,---,1.01,VWS V14.01,2013-05-02 16:01:00,
2013-05-02 11:06:00,32.3,31.3,30.47,NW,305,4.0,16.0,96,0.01,,---,1.01,VWS V14.01,2013-05-02 16:06:00,
2013-05-02 11:11:00,32.3,31.3,30.46,WNW,302,2.0,16.0,96,0.01,,---,1.01,VWS V14.01,2013-05-02 16:11:00,
2013-05-02 11:16:00,32.3,31.3,30.46,NNE,18,2.0,16.0,96,0.01,,---,1.01,VWS V14.01,2013-05-02 16:16:00,
2013-05-02 11:21:00,32.3,31.3,30.46,NW,320,7.0,16.0,96,0.01,,---,1.01,VWS V14.01,2013-05-02 16:21:00,
2013-05-02 11:26:00,32.3,31.3,30.46,NNE,16,1.0,16.0,96,0.01,,---,1.01,VWS V14.01,2013-05-02 16:26:00,
2013-05-02 11:30:00,32.3,31.3,30.46,North,1,16.0,16.0,96,0.01,,---,1.01,VWS V14.01,2013-05-02 16:30:00,
2013-05-02 11:31:00,32.4,31.4,30.46,NW,321,6.0,16.0,96,0.00,,---,1.01,VWS V14.01,2013-05-02 16:31:00,
2013-05-02 11:36:00,32.4,31.4,30.46,NNW,339,1.0,16.0,96,0.00,,---,1.01,VWS V14.01,2013-05-02 16:36:00,
2013-05-02 11:41:00,32.4,31.4,30.47,North,357,6.0,16.0,96,0.00,,---,1.01,VWS V14.01,2013-05-02 16:41:00,
2013-05-02 11:46:00,32.4,31.4,30.47,North,355,1.0,16.0,96,0.00,,---,1.01,VWS V14.01,2013-05-02 16:46:00,
2013-05-02 11:52:00,32.4,31.4,30.48,NNE,18,4.0,16.0,96,0.00,,---,1.01,VWS V14.01,2013-05-02 16:52:00,
2013-05-02 11:56:00,32.3,31.3,30.48,NE,44,8.0,16.0,96,0.00,,---,1.01,VWS V14.01,2013-05-02 16:56:00,
2013-05-02 12:00:00,32.3,31.3,30.48,ENE,69,0.0,16.0,96,0.00,,---,1.01,VWS V14.01,2013-05-02 17:00:00,
2013-05-02 12:02:00,32.3,31.3,30.48,WSW,249,1.0,5.0,96,0.00,,---,1.01,VWS V14.01,2013-05-02 17:02:00,
2013-05-02 12:07:00,32.3,31.3,30.47,NNW,333,8.0,12.0,96,0.00,,---,1.01,VWS V14.01,2013-05-02 17:07:00,
2013-05-02 12:12:00,32.3,31.3,30.47,North,9,9.0,12.0,96,0.00,,---,1.01,VWS V14.01,2013-05-02 17:12:00,
2013-05-02 12:17:00,32.2,31.2,30.47,NNW,333,4.0,12.0,96,0.00,,---,1.01,VWS V14.01,2013-05-02 17:17:00,
2013-05-02 12:22:00,32.2,31.2,30.47,NE,39,0.0,12.0,96,0.00,,---,1.01,VWS V14.01,2013-05-02 17:22:00,
2013-05-02 12:27:00,32.1,31.1,30.49,North,4,4.0,12.0,96,0.00,,---,1.01,VWS V14.01,2013-05-02 17:27:00,
2013-05-02 12:30:00,32.1,31.1,30.49,WSW,248,2.0,12.0,96,0.00,,---,1.01,VWS V14.01,2013-05-02 17:30:00,
2013-05-02 12:32:00,32.1,31.1,30.49,WSW,245,0.0,10.0,96,0.00,,---,1.01,VWS V14.01,2013-05-02 17:32:00,
2013-05-02 12:37:00,32.0,31.0,30.48,NW,308,4.0,11.0,96,0.00,,---,1.01,VWS V14.01,2013-05-02 17:37:00,
2013-05-02 12:42:00,32.0,31.0,30.48,NW,321,2.0,11.0,96,0.00,,---,1.01,VWS V14.01,2013-05-02 17:42:00,
2013-05-02 12:47:00,32.1,31.1,30.48,North,351,7.0,11.0,96,0.00,,---,1.01,VWS V14.01,2013-05-02 17:47:00,
2013-05-02 12:52:00,32.0,31.0,30.47,NW,310,4.0,11.0,96,0.00,,---,1.01,VWS V14.01,2013-05-02 17:52:00,
2013-05-02 12:57:00,32.1,31.1,30.48,NNE,32,5.0,11.0,96,0.00,,---,1.01,VWS V14.01,2013-05-02 17:57:00,
2013-05-02 13:00:00,32.1,31.1,30.48,West,271,0.0,11.0,96,0.00,,---,1.01,VWS V14.01,2013-05-02 18:00:00,
2013-05-02 13:02:00,32.1,31.1,30.48,North,349,7.0,7.0,96,0.00,,---,1.01,VWS V14.01,2013-05-02 18:02:00,
2013-05-02 13:07:00,32.2,31.2,30.49,NW,315,1.0,8.0,96,0.00,,---,1.01,VWS V14.01,2013-05-02 18:07:00,
2013-05-02 13:12:00,32.3,31.3,30.49,NNW,329,5.0,11.0,96,0.00,,---,1.01,VWS V14.01,2013-05-02 18:12:00,
2013-05-02 13:17:00,32.3,31.3,30.50,NW,311,2.0,11.0,96,0.00,,---,1.01,VWS V14.01,2013-05-02 18:17:00,
2013-05-02 13:23:00,32.3,31.3,30.49,WNW,284,1.0,11.0,96,0.00,,---,1.01,VWS V14.01,2013-05-02 18:23:00,
2013-05-02 13:28:00,32.3,31.3,30.49,WNW,302,2.0,11.0,96,0.00,,---,1.01,VWS V14.01,2013-05-02 18:28:00,
2013-05-02 13:30:00,32.4,31.4,30.49,WNW,295,3.0,11.0,96,0.00,,---,1.01,VWS V14.01,2013-05-02 18:30:00,
2013-05-02 13:33:00,32.4,31.4,30.50,NW,312,5.0,7.0,96,0.01,,---,1.02,VWS V14.01,2013-05-02 18:33:00,
2013-05-02 13:38:00,32.4,31.6,30.49,WSW,243,3.0,17.0,97,0.01,,---,1.02,VWS V14.01,2013-05-02 18:38:00,
2013-05-02 13:43:00,32.5,31.7,30.50,WNW,293,3.0,17.0,97,0.01,,---,1.02,VWS V14.01,2013-05-02 18:43:00,
2013-05-02 13:48:00,32.5,31.7,30.49,WNW,298,8.0,17.0,97,0.02,,---,1.03,VWS V14.01,2013-05-02 18:48:00,
2013-05-02 13:53:00,32.7,31.9,30.49,WNW,285,6.0,17.0,97,0.02,,---,1.03,VWS V14.01,2013-05-02 18:53:00,
2013-05-02 13:58:00,32.7,31.7,30.49,NNW,340,3.0,17.0,96,0.03,,---,1.04,VWS V14.01,2013-05-02 18:58:00,
2013-05-02 14:00:00,32.7,31.7,30.49,NW,321,4.0,17.0,96,0.03,,---,1.04,VWS V14.01,2013-05-02 19:00:00,
2013-05-02 14:03:00,32.7,31.7,30.49,NW,304,0.0,10.0,96,0.03,,---,1.04,VWS V14.01,2013-05-02 19:03:00,
2013-05-02 14:08:00,32.7,31.7,30.49,NNW,340,5.0,10.0,96,0.04,,---,1.05,VWS V14.01,2013-05-02 19:08:00,
2013-05-02 14:13:00,32.8,32.0,30.48,NNW,329,8.0,11.0,97,0.04,,---,1.05,VWS V14.01,2013-05-02 19:13:00,
2013-05-02 14:18:00,32.9,32.1,30.48,NNW,329,5.0,14.0,97,0.05,,---,1.06,VWS V14.01,2013-05-02 19:18:00,
2013-05-02 14:23:00,32.9,32.1,30.48,NE,39,4.0,18.0,97,0.06,,---,1.07,VWS V14.01,2013-05-02 19:23:00,
2013-05-02 14:29:00,33.0,32.2,30.48,WSW,238,1.0,18.0,97,0.06,,---,1.07,VWS V14.01,2013-05-02 19:29:00,
2013-05-02 14:30:00,33.0,32.2,30.48,NNE,20,6.0,18.0,97,0.06,,---,1.07,VWS V14.01,2013-05-02 19:30:00,
2013-05-02 14:34:00,33.1,32.3,30.48,NNW,336,6.0,12.0,97,0.07,,---,1.08,VWS V14.01,2013-05-02 19:34:00,
2013-05-02 14:39:00,33.0,32.0,30.48,North,351,13.0,15.0,96,0.07,,---,1.08,VWS V14.01,2013-05-02 19:39:00,
2013-05-02 14:44:00,33.1,32.3,30.48,WNW,293,4.0,15.0,97,0.08,,---,1.09,VWS V14.01,2013-05-02 19:44:00,
2013-05-02 14:49:00,33.1,32.1,30.48,NW,319,17.0,17.0,96,0.09,,---,1.10,VWS V14.01,2013-05-02 19:49:00,
2013-05-02 14:54:00,33.0,32.0,30.47,West,276,5.0,17.0,96,0.09,,---,1.10,VWS V14.01,2013-05-02 19:54:00,
2013-05-02 14:59:00,32.9,31.9,30.47,NNW,346,3.0,4.0,96,0.07,,---,1.11,VWS V14.01,2013-05-02 19:59:00,
2013-05-02 15:00:00,32.9,31.9,30.47,WNW,295,4.0,17.0,96,0.10,,---,1.11,VWS V14.01,2013-05-02 20:00:00,
2013-05-02 15:04:00,32.9,31.9,30.48,North,353,7.0,10.0,96,0.07,,---,1.11,VWS V14.01,2013-05-02 20:04:00,
2013-05-02 15:09:00,32.8,31.8,30.48,North,359,6.0,18.0,96,0.08,,---,1.12,VWS V14.01,2013-05-02 20:09:00,
2013-05-02 15:14:00,32.7,31.7,30.47,NW,324,13.0,18.0,96,0.08,,---,1.12,VWS V14.01,2013-05-02 20:14:00,
2013-05-02 15:20:00,32.5,31.5,30.46,West,269,3.0,18.0,96,0.08,,---,1.12,VWS V14.01,2013-05-02 20:20:00,
2013-05-02 15:25:00,32.4,31.4,30.47,NE,34,3.0,18.0,96,0.09,,---,1.13,VWS V14.01,2013-05-02 20:25:00,
2013-05-02 15:30:00,32.5,31.5,30.46,NNW,328,3.0,13.0,96,0.06,,---,1.13,VWS V14.01,2013-05-02 20:30:00,
2013-05-02 15:35:00,32.4,31.4,30.46,NNW,341,5.0,13.0,96,0.06,,---,1.13,VWS V14.01,2013-05-02 20:35:00,
2013-05-02 15:40:00,32.4,31.4,30.46,NW,308,12.0,13.0,96,0.07,,---,1.14,VWS V14.01,2013-05-02 20:40:00,
2013-05-02 15:45:00,32.4,31.6,30.45,NNW,330,7.0,13.0,97,0.07,,---,1.14,VWS V14.01,2013-05-02 20:45:00,
2013-05-02 15:50:00,32.3,31.3,30.45,NNW,331,7.0,15.0,96,0.07,,---,1.14,VWS V14.01,2013-05-02 20:50:00,
2013-05-02 15:55:00,32.3,31.3,30.45,NW,324,11.0,17.0,96,0.08,,---,1.15,VWS V14.01,2013-05-02 20:55:00,
2013-05-02 16:00:00,32.2,31.2,30.44,NE,41,2.0,13.0,96,0.04,,---,1.15,VWS V14.01,2013-05-02 21:00:00,
2013-05-02 16:05:00,32.3,31.5,30.46,NE,34,5.0,13.0,97,0.04,,---,1.15,VWS V14.01,2013-05-02 21:05:00,
2013-05-02 16:11:00,32.3,31.5,30.45,NNW,329,4.0,13.0,97,0.04,,---,1.15,VWS V14.01,2013-05-02 21:11:00,
2013-05-02 16:16:00,32.3,31.5,30.46,North,360,1.0,13.0,97,0.04,,---,1.15,VWS V14.01,2013-05-02 21:16:00,
2013-05-02 16:21:00,32.3,31.5,30.46,NNW,339,4.0,16.0,97,0.04,,---,1.15,VWS V14.01,2013-05-02 21:21:00,
2013-05-02 16:26:00,32.4,31.6,30.46,NW,310,9.0,16.0,97,0.05,,---,1.16,VWS V14.01,2013-05-02 21:26:00,
2013-05-02 16:30:00,32.4,31.6,30.45,North,4,3.0,16.0,97,0.05,,---,1.16,VWS V14.01,2013-05-02 21:30:00,
2013-05-02 16:31:00,32.4,31.6,30.45,WSW,243,3.0,9.0,97,0.03,,---,1.16,VWS V14.01,2013-05-02 21:31:00,
2013-05-02 16:36:00,32.5,31.7,30.46,WNW,292,1.0,18.0,97,0.03,,---,1.16,VWS V14.01,2013-05-02 21:36:00,
2013-05-02 16:41:00,32.6,31.8,30.45,NNW,340,4.0,18.0,97,0.04,,---,1.17,VWS V14.01,2013-05-02 21:41:00,
2013-05-02 16:46:00,32.6,31.8,30.45,NW,304,2.0,18.0,97,0.04,,---,1.17,VWS V14.01,2013-05-02 21:46:00,
2013-05-02 16:51:00,32.7,31.9,30.45,ENE,58,3.0,18.0,97,0.04,,---,1.17,VWS V14.01,2013-05-02 21:51:00,
2013-05-02 16:56:00,32.7,31.9,30.45,WSW,257,3.0,18.0,97,0.05,,---,1.18,VWS V14.01,2013-05-02 21:56:00,
2013-05-02 17:00:00,32.7,31.9,30.45,WNW,300,2.0,18.0,97,0.05,,---,1.18,VWS V14.01,2013-05-02 22:00:00,
2013-05-02 17:02:00,32.7,31.9,30.45,NNW,339,0.0,9.0,97,0.03,,---,1.18,VWS V14.01,2013-05-02 22:02:00,
2013-05-02 17:07:00,32.7,31.9,30.45,ESE,115,1.0,12.0,97,0.04,,---,1.19,VWS V14.01,2013-05-02 22:07:00,
2013-05-02 17:12:00,32.7,31.9,30.45,WSW,248,4.0,15.0,97,0.04,,---,1.19,VWS V14.01,2013-05-02 22:12:00,
2013-05-02 17:17:00,32.7,31.9,30.45,NE,41,7.0,15.0,97,0.04,,---,1.19,VWS V14.01,2013-05-02 22:17:00,
2013-05-02 17:22:00,32.8,32.0,30.45,NE,46,5.0,15.0,97,0.05,,---,1.20,VWS V14.01,2013-05-02 22:22:00,
2013-05-02 17:27:00,32.8,32.0,30.46,NNE,18,5.0,18.0,97,0.05,,---,1.20,VWS V14.01,2013-05-02 22:27:00,
2013-05-02 17:30:00,32.9,32.1,30.46,NW,319,1.0,18.0,97,0.05,,---,1.20,VWS V14.01,2013-05-02 22:30:00,
2013-05-02 17:32:00,32.9,32.1,30.46,NNE,28,9.0,9.0,97,0.04,,---,1.20,VWS V14.01,2013-05-02 22:32:00,
2013-05-02 17:37:00,32.9,32.1,30.46,NNE,27,6.0,13.0,97,0.05,,---,1.21,VWS V14.01,2013-05-02 22:37:00,
2013-05-02 17:42:00,32.8,32.0,30.46,NNE,16,2.0,13.0,97,0.05,,---,1.21,VWS V14.01,2013-05-02 22:42:00,
2013-05-02 17:47:00,32.8,32.0,30.46,NNW,328,6.0,13.0,97,0.05,,---,1.21,VWS V14.01,2013-05-02 22:47:00,
2013-05-02 17:53:00,32.7,31.9,30.47,NE,49,1.0,13.0,97,0.06,,---,1.22,VWS V14.01,2013-05-02 22:53:00,
2013-05-02 17:58:00,32.7,31.9,30.47,West,270,1.0,13.0,97,0.06,,---,1.22,VWS V14.01,2013-05-02 22:58:00,
2013-05-02 18:00:00,32.7,31.9,30.48,North,8,5.0,13.0,97,0.06,,---,1.22,VWS V14.01,2013-05-02 23:00:00,
2013-05-02 18:03:00,32.7,31.9,30.47,NNW,328,4.0,13.0,97,0.04,,---,1.22,VWS V14.01,2013-05-02 23:03:00,
2013-05-02 18:08:00,32.6,31.8,30.46,North,11,6.0,13.0,97,0.05,,---,1.23,VWS V14.01,2013-05-02 23:08:00,
2013-05-02 18:13:00,32.7,31.9,30.46,NNE,25,6.0,13.0,97,0.05,,---,1.23,VWS V14.01,2013-05-02 23:13:00,
2013-05-02 18:18:00,32.7,31.9,30.45,NNW,339,1.0,13.0,97,0.05,,---,1.23,VWS V14.01,2013-05-02 23:18:00,
2013-05-02 18:23:00,32.6,31.8,30.45,NE,36,3.0,13.0,97,0.06,,---,1.24,VWS V14.01,2013-05-02 23:23:00,
2013-05-02 18:28:00,32.6,31.8,30.45,NNE,25,7.0,13.0,97,0.06,,---,1.24,VWS V14.01,2013-05-02 23:28:00,
2013-05-02 18:30:00,32.6,31.8,30.45,NNW,338,3.0,13.0,97,0.06,,---,1.24,VWS V14.01,2013-05-02 23:30:00,
2013-05-02 18:33:00,32.6,31.8,30.45,NNE,23,3.0,13.0,97,0.04,,---,1.24,VWS V14.01,2013-05-02 23:33:00,
2013-05-02 18:38:00,32.6,31.8,30.46,NNW,347,4.0,13.0,97,0.04,,---,1.24,VWS V14.01,2013-05-02 23:38:00,
2013-05-02 18:43:00,32.7,31.9,30.45,WNW,295,5.0,13.0,97,0.04,,---,1.24,VWS V14.01,2013-05-02 23:43:00,
2013-05-02 18:48:00,32.7,31.9,30.46,ESE,105,2.0,13.0,97,0.05,,---,1.25,VWS V14.01,2013-05-02 23:48:00,
2013-05-02 18:53:00,32.7,31.9,30.46,WNW,291,6.0,13.0,97,0.05,,---,1.25,VWS V14.01,2013-05-02 23:53:00,
2013-05-02 18:58:00,32.6,31.8,30.46,North,10,6.0,13.0,97,0.05,,---,1.25,VWS V14.01,2013-05-02 23:58:00,
2013-05-02 19:00:00,32.6,31.8,30.46,WNW,301,4.0,13.0,97,0.05,,---,1.25,VWS V14.01,2013-05-03 00:00:00,
2013-05-02 19:03:00,32.5,31.7,30.46,ENE,60,1.0,11.0,97,0.03,,---,1.25,VWS V14.01,2013-05-03 00:03:00,
2013-05-02 19:09:00,32.5,31.7,30.46,NW,319,4.0,11.0,97,0.03,,---,1.25,VWS V14.01,2013-05-03 00:09:00,
2013-05-02 19:14:00,32.4,31.6,30.47,WNW,295,0.0,11.0,97,0.03,,---,1.25,VWS V14.01,2013-05-03 00:14:00,
2013-05-02 19:19:00,32.3,31.5,30.47,NNE,13,0.0,11.0,97,0.03,,---,1.25,VWS V14.01,2013-05-03 00:19:00,
2013-05-02 19:24:00,32.2,31.5,30.47,ENE,63,3.0,11.0,97,0.03,,---,1.25,VWS V14.01,2013-05-03 00:24:00,
2013-05-02 19:29:00,32.2,31.5,30.47,NNE,12,3.0,11.0,97,0.03,,---,1.25,VWS V14.01,2013-05-03 00:29:00,
2013-05-02 19:30:00,32.2,31.5,30.47,NNE,13,3.0,11.0,97,0.03,,---,1.25,VWS V14.01,2013-05-03 00:30:00,
2013-05-02 19:34:00,32.1,31.4,30.47,ENE,70,2.0,6.0,97,0.01,,---,1.25,VWS V14.01,2013-05-03 00:34:00,
2013-05-02 19:39:00,32.1,31.4,30.47,NNW,328,2.0,7.0,97,0.01,,---,1.25,VWS V14.01,2013-05-03 00:39:00,
2013-05-02 19:44:00,32.1,31.4,30.46,NNW,333,2.0,8.0,97,0.01,,---,1.25,VWS V14.01,2013-05-03 00:44:00,
2013-05-02 19:49:00,32.1,31.4,30.45,SSW,204,1.0,10.0,97,0.01,,---,1.25,VWS V14.01,2013-05-03 00:49:00,
2013-05-02 19:54:00,32.1,31.4,30.45,NNE,27,3.0,10.0,97,0.01,,---,1.25,VWS V14.01,2013-05-03 00:54:00,
2013-05-02 20:00:00,32.1,31.4,30.45,NNW,342,1.0,9.0,97,0.00,,---,1.25,VWS V14.01,2013-05-03 01:00:00,
2013-05-02 20:05:00,32.0,31.2,30.45,SW,232,0.0,9.0,97,0.00,,---,1.25,VWS V14.01,2013-05-03 01:05:00,
2013-05-02 20:10:00,32.1,31.4,30.45,NW,322,6.0,9.0,97,0.00,,---,1.25,VWS V14.01,2013-05-03 01:10:00,
2013-05-02 20:15:00,32.1,31.4,30.45,NE,34,1.0,9.0,97,0.00,,---,1.25,VWS V14.01,2013-05-03 01:15:00,
2013-05-02 20:20:00,32.1,31.4,30.45,ENE,74,2.0,9.0,97,0.00,,---,1.25,VWS V14.01,2013-05-03 01:20:00,
2013-05-02 20:25:00,32.1,31.4,30.45,North,4,0.0,9.0,97,0.00,,---,1.25,VWS V14.01,2013-05-03 01:25:00,
2013-05-02 20:30:00,32.1,31.4,30.45,SSE,149,1.0,5.0,97,0.01,,---,1.26,VWS V14.01,2013-05-03 01:30:00,
2013-05-02 20:35:00,32.1,31.4,30.45,NNW,339,4.0,8.0,97,0.01,,---,1.26,VWS V14.01,2013-05-03 01:35:00,
2013-05-02 20:40:00,32.1,31.4,30.45,NNW,328,11.0,11.0,97,0.01,,---,1.26,VWS V14.01,2013-05-03 01:40:00,
2013-05-02 20:45:00,32.2,31.5,30.44,NNE,27,5.0,11.0,97,0.01,,---,1.26,VWS V14.01,2013-05-03 01:45:00,
2013-05-02 20:50:00,32.3,31.5,30.44,NE,49,0.0,11.0,97,0.01,,---,1.26,VWS V14.01,2013-05-03 01:50:00,
2013-05-02 20:56:00,32.3,31.5,30.44,NW,322,0.0,11.0,97,0.01,,---,1.26,VWS V14.01,2013-05-03 01:56:00,
2013-05-02 21:00:00,32.4,31.6,30.43,NE,40,3.0,11.0,97,0.02,,---,1.27,VWS V14.01,2013-05-03 02:00:00,
2013-05-02 21:01:00,32.4,31.9,30.43,NNE,20,7.0,9.0,98,0.02,,---,1.27,VWS V14.01,2013-05-03 02:01:00,
2013-05-02 21:06:00,32.4,31.9,30.43,NNW,328,7.0,9.0,98,0.02,,---,1.27,VWS V14.01,2013-05-03 02:06:00,
2013-05-02 21:11:00,32.5,32.0,30.43,ESE,105,1.0,9.0,98,0.02,,---,1.27,VWS V14.01,2013-05-03 02:11:00,
2013-05-02 21:16:00,32.5,32.0,30.43,NW,307,1.0,9.0,98,0.02,,---,1.27,VWS V14.01,2013-05-03 02:16:00,
2013-05-02 21:21:00,32.6,32.1,30.43,East,91,4.0,9.0,98,0.03,,---,1.28,VWS V14.01,2013-05-03 02:21:00,
2013-05-02 21:26:00,32.6,32.1,30.43,NW,319,2.0,9.0,98,0.03,,---,1.28,VWS V14.01,2013-05-03 02:26:00,
2013-05-02 21:30:00,32.7,32.2,30.43,NE,56,7.0,11.0,98,0.03,,---,1.28,VWS V14.01,2013-05-03 02:30:00,
2013-05-02 21:31:00,32.6,32.1,30.43,ENE,60,1.0,9.0,98,0.02,,---,1.28,VWS V14.01,2013-05-03 02:31:00,
2013-05-02 21:36:00,32.7,32.2,30.43,NNE,12,5.0,9.0,98,0.02,,---,1.28,VWS V14.01,2013-05-03 02:36:00,
2013-05-02 21:41:00,32.7,32.2,30.43,North,354,2.0,10.0,98,0.03,,---,1.29,VWS V14.01,2013-05-03 02:41:00,
2013-05-02 21:47:00,32.7,32.2,30.43,NNW,333,1.0,12.0,98,0.03,,---,1.29,VWS V14.01,2013-05-03 02:47:00,
2013-05-02 21:52:00,32.8,32.3,30.43,NNE,20,4.0,12.0,98,0.03,,---,1.29,VWS V14.01,2013-05-03 02:52:00,
2013-05-02 21:57:00,32.8,32.3,30.43,NW,308,4.0,12.0,98,0.03,,---,1.29,VWS V14.01,2013-05-03 02:57:00,
2013-05-02 22:00:00,32.9,32.4,30.43,North,6,4.0,12.0,98,0.03,,---,1.29,VWS V14.01,2013-05-03 03:00:00,
2013-05-02 22:02:00,32.9,32.4,30.43,NE,34,3.0,8.0,98,0.03,,---,1.30,VWS V14.01,2013-05-03 03:02:00,
2013-05-02 22:07:00,32.9,32.4,30.43,WNW,299,3.0,8.0,98,0.03,,---,1.30,VWS V14.01,2013-05-03 03:07:00,
2013-05-02 22:12:00,33.0,32.5,30.44,WNW,290,2.0,11.0,98,0.03,,---,1.30,VWS V14.01,2013-05-03 03:12:00,
2013-05-02 22:17:00,33.0,32.5,30.44,North,359,8.0,11.0,98,0.03,,---,1.30,VWS V14.01,2013-05-03 03:17:00,
2013-05-02 22:22:00,33.1,32.6,30.44,North,350,2.0,11.0,98,0.04,,---,1.31,VWS V14.01,2013-05-03 03:22:00,
2013-05-02 22:27:00,33.1,32.6,30.44,NNW,345,3.0,11.0,98,0.04,,---,1.31,VWS V14.01,2013-05-03 03:27:00,
2013-05-02 22:30:00,33.0,32.5,30.44,WNW,290,1.0,11.0,98,0.04,,---,1.31,VWS V14.01,2013-05-03 03:30:00,
2013-05-02 22:32:00,33.0,32.5,30.44,NNW,340,3.0,10.0,98,0.03,,---,1.31,VWS V14.01,2013-05-03 03:32:00,
2013-05-02 22:38:00,32.9,32.1,30.43,NNE,18,7.0,10.0,97,0.04,,---,1.32,VWS V14.01,2013-05-03 03:38:00,
2013-05-02 22:43:00,32.7,31.9,30.43,NE,34,2.0,10.0,97,0.04,,---,1.32,VWS V14.01,2013-05-03 03:43:00,
2013-05-02 22:48:00,32.6,31.8,30.43,West,260,2.0,10.0,97,0.04,,---,1.32,VWS V14.01,2013-05-03 03:48:00,
2013-05-02 22:53:00,32.5,31.7,30.42,NW,324,4.0,10.0,97,0.04,,---,1.32,VWS V14.01,2013-05-03 03:53:00,
2013-05-02 22:58:00,32.3,31.5,30.42,NW,324,1.0,10.0,97,0.04,,---,1.32,VWS V14.01,2013-05-03 03:58:00,
2013-05-02 23:00:00,32.3,31.5,30.42,NNE,20,4.0,10.0,97,0.04,,---,1.32,VWS V14.01,2013-05-03 04:00:00,
2013-05-02 23:01:00,32.3,31.5,30.42,NW,319,2.0,4.0,97,0.03,,---,1.32,VWS V14.01,2013-05-03 04:01:00,
2013-05-02 23:02:00,32.2,31.5,30.42,WNW,290,1.0,4.0,97,0.03,,---,1.32,VWS V14.01,2013-05-03 04:02:00,
2013-05-02 23:07:00,32.1,31.4,30.42,ESE,120,0.0,5.0,97,0.03,,---,1.32,VWS V14.01,2013-05-03 04:07:00,
2013-05-02 23:12:00,32.1,31.4,30.41,NE,37,0.0,6.0,97,0.03,,---,1.32,VWS V14.01,2013-05-03 04:12:00,
2013-05-02 23:17:00,32.0,31.2,30.40,ENE,75,1.0,6.0,97,0.03,,---,1.32,VWS V14.01,2013-05-03 04:17:00,
2013-05-02 23:22:00,32.0,31.2,30.41,NE,41,0.0,6.0,97,0.03,,---,1.32,VWS V14.01,2013-05-03 04:22:00,
2013-05-02 23:27:00,31.9,31.1,30.41,WNW,297,8.0,8.0,97,0.03,,---,1.32,VWS V14.01,2013-05-03 04:27:00,
2013-05-02 23:30:00,32.0,31.2,30.41,NW,326,1.0,8.0,97,0.03,,---,1.32,VWS V14.01,2013-05-03 04:30:00,
2013-05-02 23:32:00,31.9,31.4,30.40,NNE,23,0.0,4.0,98,0.01,,---,1.32,VWS V14.01,2013-05-03 04:32:00,
2013-05-02 23:38:00,31.9,31.4,30.40,ENE,70,0.0,5.0,98,0.01,,---,1.32,VWS V14.01,2013-05-03 04:38:00,
2013-05-02 23:43:00,31.9,31.4,30.40,NNW,344,2.0,7.0,98,0.01,,---,1.32,VWS V14.01,2013-05-03 04:43:00,
2013-05-02 23:48:00,31.9,31.4,30.41,NE,38,1.0,8.0,98,0.01,,---,1.32,VWS V14.01,2013-05-03 04:48:00,
2013-05-02 23:53:00,31.9,31.4,30.41,NE,56,1.0,8.0,98,0.01,,---,1.32,VWS V14.01,2013-05-03 04:53:00,
2013-05-02 23:58:00,31.8,31.3,30.42,North,4,3.0,8.0,98,0.01,,---,1.32,VWS V14.01,2013-05-03 04:58:00,